DW2465 Weather Reports


time (UTC)temp
C
wind
direction
speed
KPH
gust
KPH
rain 1hr
cm
rain 24hr
cm
rain mn
cm
humidity
%
barometer
mb
20260503000023 17 249 0.0 0.0 0.00 0.00 0.00 35 1010.2
20260502234524 17 277 0.0 0.0 0.00 0.00 0.00 35 1010.4
20260502233021 17 292 0.0 0.0 0.00 0.00 0.00 35 1010.3
20260502233019 17 264 0.0 0.0 0.00 0.00 0.00 35 1010.3
20260502231525 17 221 0.0 0.0 0.00 0.00 0.00 33 1010.4
20260502230019 18 242 0.0 0.0 0.00 0.00 0.00 33 1010.3
20260502224515 18 200 0.0 0.0 0.00 0.00 0.00 33 1010.4
20260502223017 18 188 0.0 0.0 0.00 0.00 0.00 32 1010.7
20260502221513 18 228 0.0 0.0 0.00 0.00 0.00 32 1010.8
20260502220018 18 212 0.0 0.0 0.00 0.00 0.00 31 1011.0
20260502214509 18 236 0.0 0.0 0.00 0.00 0.00 30 1011.2
20260502213016 18 198 0.0 0.0 0.00 0.00 0.00 31 1011.4
20260502211505 18 250 0.0 0.0 0.00 0.00 0.00 32 1011.5
20260502210005 18 246 0.0 0.0 0.00 0.00 0.00 32 1011.9
20260502204531 18 248 0.0 0.0 0.00 0.00 0.00 31 1012.3
20260502203030 18 196 0.0 0.0 0.00 0.00 0.00 33 1012.5
20260502201534 17 206 0.0 0.0 0.00 0.00 0.00 34 1012.9
20260502200021 17 298 0.0 0.0 0.00 0.00 0.00 32 1013.1
20260502194517 17 223 0.0 0.0 0.00 0.00 0.00 33 1013.5
20260502193013 16 184 0.0 0.0 0.00 0.00 0.00 33 1013.9
20260502191542 16 279 0.0 0.0 0.00 0.00 0.00 33 1014.2
20260502190044 15 205 0.0 0.0 0.00 0.00 0.00 36 1014.6
20260502184510 15 211 0.0 0.0 0.00 0.00 0.00 33 1014.8
20260502183006 15 250 0.0 0.0 0.00 0.00 0.00 34 1015.1
20260502181601 14 227 0.0 0.0 0.00 0.00 0.00 33 1015.3
20260502163038 12 178 0.0 0.0 0.00 0.00 0.00 37 1017.1
20260502161535 12 225 0.0 0.0 0.00 0.00 0.00 36 1017.4
20260502151520 10 209 0.0 0.0 0.00 0.00 0.00 44 1018.1
20260502123048 5 250 0.0 0.0 0.00 0.00 0.00 63 1018.6
20260502121537 4 273 0.0 0.0 0.00 0.00 0.00 66 1018.6
20260502114537 3 246 0.0 0.0 0.00 0.00 0.00 68 1018.6
20260502113039 3 247 0.0 0.0 0.00 0.00 0.00 68 1018.6
20260502111534 3 252 0.0 0.0 0.00 0.00 0.00 67 1018.5
20260502110037 3 252 0.0 0.0 0.00 0.00 0.00 66 1018.3
20260502104536 3 248 0.0 0.0 0.00 0.00 0.00 65 1018.5
20260502103030 3 238 0.0 0.0 0.00 0.00 0.00 64 1018.5
20260502101529 3 236 0.0 0.0 0.00 0.00 0.00 63 1018.4
20260502091504 4 228 0.0 0.0 0.00 0.00 0.00 60 1018.2
20260502064548 6 240 0.0 0.0 0.00 0.00 0.00 52 1018.8
20260502063019 6 246 0.0 0.0 0.00 0.00 0.00 51 1018.8
20260502061514 6 256 0.0 0.0 0.00 0.00 0.00 51 1018.8
20260502060044 6 252 0.0 0.0 0.00 0.00 0.00 51 1018.8
20260502054557 6 256 0.0 0.0 0.00 0.00 0.00 50 1018.9
20260502053037 6 249 0.0 0.0 0.00 0.00 0.00 50 1018.8
20260502051537 6 259 0.0 0.0 0.00 0.00 0.00 49 1018.8
20260502050032 6 247 0.0 0.0 0.00 0.00 0.00 49 1018.8
20260502044532 6 252 0.0 0.0 0.00 0.00 0.00 49 1018.8
20260502043032 6 255 0.0 0.0 0.00 0.00 0.00 50 1018.7
20260502041552 6 261 0.0 0.0 0.00 0.00 0.00 49 1018.7
20260502040046 6 264 0.0 0.0 0.00 0.00 0.00 47 1018.7
20260502034529 6 263 0.0 0.0 0.00 0.00 0.00 46 1018.7
20260502033032 6 271 0.0 0.0 0.00 0.00 0.00 46 1018.7
20260502031526 7 274 0.0 0.0 0.00 0.00 0.00 44 1018.7
20260502030030 7 300 0.0 0.0 0.00 0.00 0.00 43 1018.7
20260502024525 7 300 0.0 0.0 0.00 0.00 0.00 43 1018.8
20260502023030 7 301 0.0 0.0 0.00 0.00 0.00 44 1018.9
20260502021521 7 301 0.0 0.0 0.00 0.00 0.00 43 1018.7
20260502020021 7 301 0.0 0.0 0.00 0.00 0.00 42 1018.6
20260502014524 8 301 0.0 0.0 0.00 0.00 0.00 39 1018.4
20260502013018 9 301 0.0 0.0 0.00 0.00 0.00 37 1018.3
20260502011518 10 301 0.0 0.0 0.00 0.00 0.00 35 1018.2
20260502010017 10 299 0.0 0.0 0.00 0.00 0.00 35 1018.2
20260502004517 10 301 0.0 0.0 0.00 0.00 0.00 33 1018.2
20260502003013 10 297 0.0 0.0 0.00 0.00 0.00 33 1018.2
20260502001516 10 343 0.0 0.0 0.00 0.00 0.00 34 1018.1